Other Public Products
Issued by NWS Charleston, SC

Current Version | Previous Version | Graphics & Text | Print | Product List | Glossary On
Versions: 1 2 3 4 5 6 7 8 9 10 11 12 13 14 15 16 17 18 19 20 21 22 23 24 25 26 27 28 29 30 31 32 33 34 35 36 37 38 39 40 41 42 43 44 45 46 47 48 49 50
094 FPUS82 KCHS 240743 OPUCHS TEST...KCHS/KSAV Gateway Observations...TEST National Weather Service Charleston SC 300 AM EDT SUN SEP 24 2017 NOTE: "fair" indicates few or no clouds below 12,000 feet with no significant weather and/or obstructions to visibility. SCZ050-WAZ558-NCZ071-TXZ119-213-PAZ071-DCZ001-FLZ074-172-MI076- NYZ176-178-MAZ016-IL014-TNZ027-NJZ106-GAZ044-MD014-240800- ...Gateway Observations for Charleston International... CITY SKY/WX TMP DP RH WIND PRES REMARKS Chas Airport PTCLDY 70 69 97 NE5 29.97F Seattle CLEAR 59 48 67 CALM 30.13S Charlotte PTCLDY 64 62 93 N6 30.07S Dallas DFW PTCLDY 80 67 64 S10 29.87S Dallas Love PTCLDY 80 68 66 SE12 29.89R Philladelphia CLEAR 71 60 68 N6 30.04S Wash National MOCLDY 70 63 78 CALM 30.07S Baltimore PTCLDY 63 60 90 CALM 30.05S Miami MOCLDY 82 80 94 CALM 29.81F HX 94 Detroit CLEAR 70 64 81 CALM 30.14R Newark CLEAR 68 58 70 NE6 30.04S Laguardia CLEAR 72 62 71 CALM 30.03S J F K CLEAR 68 58 70 N6 30.04F Boston Logan PTCLDY 63 62 97 CALM 30.03R Ft. Lauderdale PTCLDY 81 76 84 CALM 29.81S Chicago O`Hare CLEAR 75 65 70 CALM 30.07R Chicago Midway CLEAR 79 65 62 SE6 30.07R Houston Bush CLEAR 76 73 91 SE3 29.89S Houston Hobby PTCLDY 77 72 84 CALM 29.88S Nashville CLEAR 71 68 90 CALM 30.02S Atlanta PTCLDY 72 65 78 E5 30.03S $$ GAZ044-118-TXZ119-213-NCZ071-DCZ001-MDZ014-506-PAZ021-071-NJZ106- NYZ176-178-MAZ106-OHZ011-021-055-MIZ076-KYZ091-ILZ014-INZ047- MNZ060-ONZ431-240800- ...Gateway Observations for Savannah International... CITY SKY/WX TMP DP RH WIND PRES REMARKS Savannah Arpt CLEAR 70 70 100 N5 29.97S Atlanta PTCLDY 72 65 78 E5 30.03S Charlotte PTCLDY 64 62 93 N6 30.07S Dallas DFW PTCLDY 80 67 64 S10 29.87S Houston Bush CLEAR 76 73 91 SE3 29.89S Wash National MOCLDY 70 63 78 CALM 30.07S Wash Dulles CLEAR 61 61 100 CALM 30.08S Baltimore PTCLDY 63 60 90 CALM 30.05S Philadelphia CLEAR 71 60 68 N6 30.04S Newark CLEAR 68 58 70 NE6 30.04S Laguardia CLEAR 72 62 71 CALM 30.03S J F K CLEAR 68 58 70 N6 30.04F Boston PTCLDY 63 62 97 CALM 30.03R Pittsburg CLEAR 65 59 81 CALM 30.14S Akron CLEAR 68 59 73 NE6 30.15S Cleveland CLEAR 66 59 78 S6 30.14F Cincinnati CLEAR 72 62 71 CALM 30.08F Columbus CLEAR 65 60 85 N5 30.11S Detroit CLEAR 70 64 81 CALM 30.14R Chicago O`Hare CLEAR 75 65 70 CALM 30.07R Minneapolis PTCLDY 77 65 66 S13 29.94S Indianapolis CLEAR 72 64 76 CALM 30.08R Toronto Canada CLEAR 73 66 78 W3 30.11R $$

USA.gov is the U.S. government's official web portal to all federal, state and local government web resources and services.